1484182800.86,61970,5.0,71642.5,-13.37,-18.69,-16.97,0,*60
1484182802.13,61971,5.0,71626.5,-13.41,-18.73,-17.03,0,*67
1484182803.41,61972,5.0,71624.8,-13.41,-18.99,-17.07,0,*64
1484182804.7,61973,5.0,71622.3,-13.37,-18.93,-17.03,0,*6A
1484182805.94,61974,5.0,71622.3,-13.37,-18.83,-16.89,0,*6F
1484182807.21,61975,5.0,71630.0,-13.41,-18.89,-16.93,0,*6E
1484182808.45,61976,5.0,71626.8,-13.37,-18.69,-16.83,0,*63
1484182809.72,61977,5.0,71618.8,-13.37,-18.69,-16.69,0,*66
1484182810.97,61978,5.0,71622.0,-13.41,-18.69,-16.75,0,*65
1484182812.21,61979,5.0,71628.8,-13.37,-18.49,-16.55,0,*65
1484182813.45,61980,5.0,71620.3,-13.37,-18.49,-16.45,0,*62
1484182814.68,61981,5.0,71630.3,-13.37,-18.21,-16.45,0,*6D
1484182815.94,61982,5.0,71624.8,-13.37,-18.01,-16.45,0,*6C
1484182817.19,61983,5.0,71618.5,-13.37,-17.87,-16.55,0,*6D
1484182818.43,61984,5.0,71630.3,-13.37,-17.73,-16.55,0,*61
1484182819.69,61985,5.0,71634.3,-13.37,-17.59,-16.55,0,*68
1484182820.96,61986,5.0,71628.3,-13.37,-17.59,-16.83,0,*60
1484182822.22,61987,5.0,71634.0,-13.37,-17.63,-16.83,0,*68
1484182823.51,61988,5.0,71636.5,-13.37,-17.79,-17.17,0,*60
1484182824.79,61989,5.0,71642.0,-13.41,-17.97,-17.35,0,*60
1484182826.03,61990,5.0,71646.8,-13.37,-18.25,-17.49,0,*64
1484182827.32,61991,5.0,71652.3,-13.37,-18.55,-17.59,0,*63
1484182828.59,61992,5.0,71650.0,-13.37,-18.65,-17.59,0,*63
1484182829.85,61993,5.0,71644.8,-13.37,-18.93,-17.73,0,*63
1484182831.12,61994,5.0,71650.8,-13.41,-19.47,-17.93,0,*63
1484182832.41,61995,5.0,71650.3,-13.37,-19.61,-17.93,0,*67
1484182833.68,61996,5.0,71652.0,-13.41,-19.81,-18.11,0,*6E
1484182834.92,61997,5.0,71654.0,-13.41,-20.25,-18.11,0,*6B
1484182836.18,61998,5.0,71652.3,-13.37,-20.35,-18.11,0,*64
1484182837.45,61999,5.0,71654.5,-13.37,-20.49,-18.11,0,*6E
1484182838.7,62000,5.0,71648.8,-13.37,-20.63,-18.11,0,*6C
1484182839.96,62001,5.0,71646.3,-13.37,-20.99,-18.25,0,*6F
1484182841.26,62002,5.0,71652.0,-13.41,-20.99,-18.31,0,*68
1484182842.56,62003,5.0,71644.0,-13.41,-21.23,-18.31,0,*69
1484182843.8,62004,5.0,71642.8,-13.37,-21.13,-18.21,0,*6D
1484182845.07,62005,5.0,71632.8,-13.37,-21.13,-18.01,0,*6E
1484182846.34,62006,5.0,71618.5,-13.41,-20.89,-17.97,0,*6E
1484182847.61,62007,5.0,71616.0,-13.37,-20.79,-17.87,0,*60
1484182848.85,62008,5.0,71618.3,-13.37,-20.69,-17.87,0,*6E
1484182850.12,62009,5.0,71620.0,-13.37,-20.63,-17.79,0,*64
1484182851.37,62010,5.0,71620.0,-13.41,-20.59,-17.83,0,*61
1484182852.64,62011,5.0,71620.3,-13.37,-20.63,-17.79,0,*6D
1484182853.9,62012,5.0,71622.0,-13.37,-20.63,-17.79,0,*6E
1484182855.15,62013,5.0,71604.8,-13.37,-20.63,-17.87,0,*6E
1484182856.42,62014,5.0,71594.0,-13.37,-20.53,-17.87,0,*6A
1484182857.69,62015,5.0,71598.5,-13.37,-20.49,-17.87,0,*60
1484182858.93,62016,5.0,71594.8,-13.37,-20.39,-17.73,0,*6F
1484182860.18,62017,5.0,71584.0,-13.37,-20.35,-17.73,0,*62
1484182861.45,62018,5.0,71584.0,-13.41,-20.15,-17.69,0,*65
1484182862.71,62019,5.0,71594.0,-13.37,-20.05,-17.63,0,*6E
1484182863.97,62020,5.0,71606.3,-13.37,-19.85,-17.49,0,*6E
1484182865.23,62021,5.0,71600.3,-13.37,-19.85,-17.73,0,*66
1484182866.47,62022,5.0,71604.3,-13.37,-19.71,-17.73,0,*6E
1484182867.71,62023,5.0,71620.5,-13.37,-19.75,-17.87,0,*60
1484182868.96,62024,5.0,71618.3,-13.37,-19.75,-17.87,0,*67
1484182870.25,62025,5.0,71630.3,-13.37,-19.85,-18.01,0,*68
1484182871.48,62026,5.0,71626.5,-13.37,-20.05,-18.11,0,*68
1484182872.73,62027,5.0,71630.3,-13.41,-20.25,-18.11,0,*6A
1484182873.97,62028,5.0,71634.3,-13.37,-20.25,-18.11,0,*64
1484182875.24,62029,5.0,71630.3,-13.37,-20.49,-18.07,0,*68
1484182876.53,62030,5.0,71630.8,-13.37,-20.49,-17.93,0,*62
1484182877.79,62031,5.0,71636.8,-13.37,-20.63,-18.01,0,*6F
1484182879.08,62032,5.0,71632.0,-13.37,-20.83,-17.93,0,*66
1484182880.35,62033,5.0,71636.3,-13.41,-20.99,-18.07,0,*6F
1484182881.62,62034,5.0,71634.8,-13.41,-21.33,-18.07,0,*69
1484182882.91,62035,5.0,71630.5,-13.37,-21.33,-17.93,0,*6B
1484182884.19,62036,5.0,71620.8,-13.41,-21.53,-17.83,0,*6E
1484182885.47,62037,5.0,71618.5,-13.41,-21.53,-17.69,0,*6B
1484182886.71,62038,5.0,71620.0,-13.41,-21.47,-17.69,0,*61
1484182887.98,62039,5.0,71618.0,-13.41,-21.39,-17.55,0,*66
1484182889.27,62040,5.0,71614.0,-13.37,-21.03,-17.41,0,*65
1484182890.53,62041,5.0,71614.3,-13.37,-20.79,-17.31,0,*6F
1484182891.81,62042,5.0,71608.0,-13.41,-20.59,-17.07,0,*6A
1484182893.09,62043,5.0,71600.5,-13.41,-20.43,-17.07,0,*60
1484182894.35,62044,5.0,71602.8,-13.37,-20.35,-16.89,0,*60
1484182895.59,62045,5.0,71610.0,-13.41,-20.25,-16.93,0,*6A
1484182896.82,62046,5.0,71608.3,-13.37,-20.05,-16.89,0,*61
1484182898.06,62047,5.0,71610.0,-13.37,-19.91,-16.83,0,*6D
1484182899.31,62048,5.0,71610.3,-13.37,-19.71,-16.75,0,*65
1484182900.58,62049,5.0,71620.0,-13.41,-19.61,-16.89,0,*67
1484182901.82,62050,5.0,71622.8,-13.41,-19.47,-16.79,0,*64
1484182903.07,62051,5.0,71616.3,-13.37,-19.17,-16.83,0,*64
1484182904.32,62052,5.0,71616.3,-13.37,-19.17,-16.83,0,*67
1484182905.57,62053,5.0,71622.5,-13.41,-19.17,-16.93,0,*66
1484182906.81,62054,5.0,71626.5,-13.37,-19.13,-16.97,0,*60
1484182908.06,62055,5.0,71624.5,-13.37,-19.17,-16.97,0,*65
1484182909.34,62056,5.0,71626.0,-13.41,-19.17,-17.03,0,*6B
1484182910.63,62057,5.0,71626.5,-13.41,-19.23,-17.25,0,*69
1484182911.93,62058,5.0,71634.3,-13.37,-19.27,-17.21,0,*67
1484182913.21,62059,5.0,71636.3,-13.41,-19.37,-17.41,0,*60
1484182914.46,62060,5.0,71630.0,-13.41,-19.37,-17.49,0,*62
1484182915.73,62061,5.0,71630.8,-13.41,-19.51,-17.63,0,*6B
1484182917.03,62062,5.0,71628.8,-13.41,-19.61,-17.79,0,*60
1484182918.29,62063,5.0,71620.8,-13.41,-19.75,-17.93,0,*60
1484182919.55,62064,5.0,71630.3,-13.37,-19.91,-17.93,0,*6C
1484182920.82,62065,5.0,71626.0,-13.41,-20.05,-17.97,0,*6F
1484182922.09,62066,5.0,71624.0,-13.37,-19.99,-18.01,0,*62
1484182923.33,62067,5.0,71620.3,-13.41,-20.09,-18.07,0,*67
1484182924.53,62068,5.0,71618.3,-13.43,-20.29,-18.17,0,*69
1484182925.75,62069,5.0,71620.3,-13.43,-20.43,-18.21,0,*61
1484182926.98,62070,5.0,71612.0,-13.41,-20.39,-18.25,0,*62
1484182928.25,62071,5.0,71598.5,-13.41,-20.53,-18.25,0,*6F
1484182929.52,62072,5.0,71616.0,-13.41,-20.69,-18.31,0,*60
1484182930.76,62073,5.0,71602.8,-13.41,-20.59,-18.25,0,*67
1484182932.0,62074,5.0,71612.5,-13.43,-20.73,-18.35,0,*6B
1484182933.24,62075,5.0,71606.5,-13.41,-20.89,-18.41,0,*6E
1484182934.48,62076,5.0,71596.5,-13.41,-20.89,-18.25,0,*6F
1484182935.74,62077,5.0,71582.3,-13.41,-21.03,-18.25,0,*6D
1484182936.98,62078,5.0,71586.0,-13.41,-21.17,-18.25,0,*67
1484182938.24,62079,5.0,71588.5,-13.41,-21.33,-18.25,0,*60
1484182939.48,62080,5.0,71588.8,-13.41,-21.17,-18.17,0,*61
1484182940.75,62081,5.0,71580.5,-13.41,-21.33,-18.17,0,*66
1484182941.99,62082,5.0,71576.5,-13.37,-21.13,-18.07,0,*67
1484182943.26,62083,5.0,71552.5,-13.41,-21.17,-17.97,0,*65
1484182944.56,62084,5.0,71566.8,-13.41,-21.23,-17.97,0,*65
1484182945.86,62085,5.0,71566.0,-13.41,-21.23,-17.97,0,*64
1484182947.16,62086,5.0,71556.0,-13.41,-21.23,-17.97,0,*67
1484182948.45,62087,5.0,71534.3,-13.37,-21.27,-17.93,0,*67
1484182949.72,62088,5.0,71558.5,-13.37,-20.99,-17.87,0,*69
1484182950.99,62089,5.0,71566.3,-13.37,-21.27,-17.87,0,*6C
1484182952.26,62090,5.0,71578.8,-13.37,-21.27,-17.87,0,*64
1484182953.54,62091,5.0,71570.3,-13.37,-21.27,-17.87,0,*65
1484182954.8,62092,5.0,71574.8,-13.37,-21.03,-17.73,0,*6B
1484182956.09,62093,5.0,71590.0,-13.37,-20.83,-17.59,0,*6B
1484182957.33,62094,5.0,71602.3,-13.41,-20.29,-17.35,0,*67
1484182958.62,62095,5.0,71596.0,-13.37,-20.19,-17.45,0,*63
1484182959.91,62096,5.0,71608.5,-13.37,-20.49,-17.59,0,*68
1484182961.18,62097,5.0,71606.5,-13.37,-20.53,-17.49,0,*63
1484182962.42,62098,5.0,71606.0,-13.37,-20.39,-17.35,0,*6B
1484182963.69,62099,5.0,71598.8,-13.37,-20.53,-17.49,0,*6D
1484182964.95,62100,5.0,71604.8,-13.37,-20.93,-17.59,0,*61
1484182966.19,62101,5.0,71600.0,-13.37,-21.17,-17.49,0,*6C
1484182967.49,62102,5.0,71602.0,-13.41,-21.33,-17.55,0,*65
1484182968.75,62103,5.0,71608.3,-13.37,-21.17,-17.45,0,*62
1484182970.03,62104,5.0,71596.5,-13.37,-21.27,-17.35,0,*61
1484182971.27,62105,5.0,71596.0,-13.37,-21.13,-17.35,0,*67
1484182972.54,62106,5.0,71588.0,-13.37,-20.99,-17.31,0,*63
1484182973.8,62107,5.0,71590.8,-13.41,-20.89,-17.25,0,*67
1484182975.08,62108,5.0,71596.5,-13.41,-20.59,-17.21,0,*61
1484182976.35,62109,5.0,71602.8,-13.37,-20.39,-17.03,0,*67
1484182977.62,62110,5.0,71594.5,-13.37,-20.39,-17.03,0,*6F
1484182978.85,62111,5.0,71592.8,-13.37,-20.09,-16.89,0,*6E
1484182980.08,62112,5.0,71598.3,-13.37,-20.05,-16.97,0,*6E
1484182981.34,62113,5.0,71600.8,-13.37,-19.85,-16.89,0,*62
1484182982.58,62114,5.0,71590.5,-13.37,-19.91,-16.89,0,*60
1484182983.85,62115,5.0,71592.0,-13.37,-19.57,-16.75,0,*68
1484182985.13,62116,5.0,71590.8,-13.37,-19.17,-16.69,0,*62
1484182986.39,62117,5.0,71586.0,-13.37,-18.79,-16.69,0,*6A
1484182987.64,62118,5.0,71574.0,-13.37,-18.65,-16.59,0,*6B
1484182988.91,62119,5.0,71578.0,-13.37,-18.41,-16.69,0,*6F
1484182990.15,62120,5.0,71570.8,-13.37,-18.25,-16.59,0,*64
1484182991.4,62121,5.0,71570.5,-13.37,-18.07,-16.59,0,*65
1484182992.65,62122,5.0,71580.0,-13.41,-18.11,-16.75,0,*6E
1484182993.91,62123,5.0,71584.8,-13.37,-18.01,-16.83,0,*66
1484182995.18,62124,5.0,71580.8,-13.37,-17.87,-16.69,0,*64
1484182996.43,62125,5.0,71582.3,-13.41,-17.83,-16.75,0,*6D
1484182997.68,62126,5.0,71582.3,-13.41,-17.83,-16.89,0,*6D
1484182998.97,62127,5.0,71576.8,-13.37,-17.45,-16.69,0,*69
1484183000.23,62128,5.0,71572.5,-13.37,-17.59,-16.97,0,*6A
1484183001.5,62129,5.0,71572.0,-13.37,-17.87,-17.45,0,*66
1484183002.77,62130,5.0,71574.8,-13.41,-17.93,-17.69,0,*64
1484183004.01,62131,5.0,71572.0,-13.37,-18.07,-17.73,0,*6D
1484183005.26,62132,5.0,71582.0,-13.37,-18.25,-17.87,0,*65
1484183006.52,62133,5.0,71594.5,-13.37,-18.49,-18.01,0,*6F
1484183007.79,62134,5.0,71592.0,-13.37,-18.79,-18.31,0,*68
1484183009.06,62135,5.0,71594.8,-13.41,-19.23,-18.41,0,*61
1484183010.33,62136,5.0,71592.5,-13.41,-19.51,-18.59,0,*6E
1484183011.58,62137,5.0,71604.3,-13.41,-19.81,-18.83,0,*65
1484183012.82,62138,5.0,71592.5,-13.37,-20.25,-19.13,0,*67
1484183014.06,62139,5.0,71600.3,-13.41,-20.73,-19.47,0,*65
1484183015.33,62140,5.0,71590.0,-13.41,-21.17,-19.65,0,*68
1484183016.61,62141,5.0,71572.3,-13.41,-21.53,-19.95,0,*66
1484183017.85,62142,5.0,71560.3,-13.41,-22.27,-20.29,0,*68
1484183019.13,62143,5.0,71576.8,-13.37,-22.57,-20.53,0,*62
1484183020.38,62144,5.0,71558.0,-13.41,-23.09,-20.73,0,*6C
1484183021.64,62145,5.0,71574.5,-13.41,-23.43,-20.89,0,*66
1484183022.91,62146,5.0,71592.3,-13.41,-23.59,-20.83,0,*64
1484183024.2,62147,5.0,71592.8,-13.41,-23.69,-20.83,0,*66
1484183025.48,62148,5.0,71604.5,-13.41,-23.99,-20.89,0,*6C
1484183026.77,62149,5.0,71608.5,-13.41,-24.25,-20.89,0,*6D
1484183028.05,62150,5.0,71608.0,-13.41,-24.51,-21.23,0,*67
1484183029.33,62151,5.0,71612.0,-13.41,-24.83,-21.47,0,*6B
1484183030.54,62152,5.0,71614.0,-13.43,-25.09,-21.43,0,*6D
1484183031.8,62153,5.0,71608.5,-13.45,-25.03,-21.13,0,*65
1484183033.08,62154,5.0,71600.0,-13.43,-24.71,-21.03,0,*61
1484183034.33,62155,5.0,71596.0,-13.45,-24.61,-20.89,0,*64
1484183035.55,62156,5.0,71588.5,-13.43,-24.57,-20.59,0,*69
1484183036.85,62157,5.0,71588.5,-13.45,-24.11,-20.19,0,*68
1484183038.06,62158,5.0,71590.8,-13.43,-23.89,-20.09,0,*66
1484183039.31,62159,5.0,71596.3,-13.45,-23.59,-19.99,0,*6F
1484183040.57,62160,5.0,71602.3,-13.43,-23.29,-19.85,0,*69
1484183041.81,62161,5.0,71602.8,-13.43,-23.19,-19.95,0,*6A
1484183043.05,62162,5.0,71592.5,-13.43,-23.13,-19.81,0,*66
1484183044.27,62163,5.0,71596.5,-13.43,-22.97,-19.71,0,*65
1484183045.49,62164,5.0,71598.3,-13.43,-23.09,-19.71,0,*64
1484183046.73,62165,5.0,71590.0,-13.43,-23.19,-19.51,0,*66
1484183047.97,62166,5.0,71586.8,-13.45,-23.09,-19.37,0,*62
1484183049.21,62167,5.0,71594.5,-13.43,-22.77,-19.07,0,*6E
1484183050.42,62168,5.0,71594.0,-13.43,-22.53,-19.07,0,*67
1484183051.68,62169,5.0,71592.0,-13.41,-22.11,-18.89,0,*65
1484183052.94,62170,5.0,71598.8,-13.45,-21.73,-18.89,0,*6E
1484183054.17,62171,5.0,71598.8,-13.43,-21.57,-18.79,0,*60
1484183055.41,62172,5.0,71598.0,-13.43,-21.23,-18.79,0,*60
1484183056.64,62173,5.0,71604.3,-13.43,-21.09,-18.93,0,*6D
1484183057.88,62174,5.0,71604.8,-13.43,-21.09,-19.27,0,*64
1484183059.17,62175,5.0,71604.8,-13.45,-21.27,-19.81,0,*63
1484183060.41,62176,5.0,71616.3,-13.43,-21.67,-19.99,0,*6B
1484183061.69,62177,5.0,71606.5,-13.43,-22.47,-20.49,0,*6C
1484183062.93,62178,5.0,71618.8,-13.43,-23.29,-20.63,0,*62
1484183064.16,62179,5.0,71608.0,-13.43,-23.75,-20.63,0,*6A
1484183065.46,62180,5.0,71612.8,-13.45,-24.15,-20.49,0,*63
1484183066.73,62181,5.0,71620.5,-13.45,-24.41,-20.29,0,*65
1484183068.0,62182,5.0,71610.3,-13.43,-24.41,-20.15,0,*6F
1484183069.23,62183,5.0,71604.8,-13.43,-24.57,-20.15,0,*69
1484183070.48,62184,5.0,71610.0,-13.43,-24.71,-20.09,0,*67
1484183071.76,62185,5.0,71604.8,-13.45,-24.71,-19.99,0,*63
1484183073.03,62186,5.0,71604.8,-13.45,-24.61,-19.85,0,*6C
1484183074.3,62187,5.0,71612.5,-13.45,-24.47,-19.81,0,*6D
1484183075.6,62188,5.0,71624.3,-13.45,-24.25,-19.81,0,*66
1484183076.88,62189,5.0,71616.0,-13.45,-24.15,-19.81,0,*64
1484183078.11,62190,5.0,71618.3,-13.47,-24.05,-19.95,0,*6A
1484183079.35,62191,5.0,71626.5,-13.45,-24.05,-20.09,0,*66
1484183080.6,62192,5.0,71626.0,-13.45,-24.05,-20.09,0,*65
1484183081.87,62193,5.0,71576.0,-13.43,-24.15,-20.19,0,*62
1484183083.15,62194,5.0,71564.8,-13.45,-24.15,-20.15,0,*6F
1484183084.44,62195,5.0,71550.8,-13.45,-24.15,-20.15,0,*6E
1484183085.68,62196,5.0,71550.3,-13.43,-23.75,-19.85,0,*69
1484183086.95,62197,5.0,71548.0,-13.45,-23.75,-19.85,0,*6E
1484183088.25,62198,5.0,71566.3,-13.41,-23.53,-19.81,0,*65
1484183089.51,62199,5.0,71564.5,-13.41,-23.39,-19.65,0,*62
1484183090.75,62200,5.0,71578.5,-13.41,-23.39,-20.05,0,*6D
1484183091.97,62201,5.0,71610.3,-13.43,-23.09,-19.95,0,*6E
1484183093.2,62202,5.0,71618.0,-13.43,-23.75,-20.63,0,*65
1484183094.45,62203,5.0,71604.0,-13.43,-24.25,-20.93,0,*69
1484183095.69,62204,5.0,71598.5,-13.43,-24.61,-21.03,0,*66
1484183096.94,62205,5.0,71586.8,-13.37,-24.77,-20.69,0,*6E
1484183098.15,62206,5.0,71612.8,-13.43,-24.93,-20.63,0,*6E
1484183099.42,62207,5.0,71622.3,-13.41,-24.87,-20.29,0,*66
1484183100.69,62208,5.0,71624.3,-13.37,-25.45,-20.39,0,*66
1484183101.93,62209,5.0,71596.0,-13.41,-25.35,-20.09,0,*62
1484183103.17,62210,5.0,71608.5,-13.41,-25.39,-19.95,0,*69
1484183104.44,62211,5.0,71592.3,-13.41,-25.35,-19.81,0,*61
1484183105.73,62212,5.0,71598.5,-13.41,-25.03,-19.65,0,*6D
1484183107.0,62213,5.0,71594.5,-13.41,-24.87,-19.51,0,*66
1484183108.27,62214,5.0,71600.0,-13.41,-24.41,-19.51,0,*6B
1484183109.54,62215,5.0,71594.0,-13.41,-24.41,-19.51,0,*6A
1484183110.79,62216,5.0,71578.8,-13.37,-24.35,-19.47,0,*6C
1484183112.03,62217,5.0,71590.5,-13.41,-24.35,-19.47,0,*6C
1484183113.27,62218,5.0,71612.0,-13.41,-23.59,-19.07,0,*6A
1484183114.52,62219,5.0,71596.5,-13.41,-23.75,-19.37,0,*66
1484183115.81,62220,5.0,71590.0,-13.37,-23.85,-19.41,0,*63
1484183117.06,62221,5.0,71612.3,-13.41,-23.59,-19.37,0,*63
1484183118.32,62222,5.0,71608.0,-13.41,-23.69,-19.47,0,*64
1484183119.56,62223,5.0,71602.0,-13.37,-23.79,-19.47,0,*65
1484183120.83,62224,5.0,71616.8,-13.41,-23.85,-19.47,0,*60
1484183122.08,62225,5.0,71622.8,-13.41,-23.75,-19.47,0,*6E
1484183123.29,62226,5.0,71610.3,-13.43,-23.89,-19.51,0,*6B
1484183124.51,62227,5.0,71638.3,-13.43,-23.75,-19.37,0,*69
1484183125.79,62228,5.0,71636.8,-13.41,-23.75,-19.31,0,*62
1484183127.03,62229,5.0,71622.3,-13.41,-23.75,-19.07,0,*66
1484183128.28,62230,5.0,71638.0,-13.37,-23.69,-18.79,0,*6A
1484183129.55,62231,5.0,71638.8,-13.41,-23.75,-18.59,0,*65
1484183130.8,62232,5.0,71634.8,-13.41,-23.75,-18.11,0,*6A
1484183132.09,62233,5.0,71632.0,-13.37,-23.49,-17.79,0,*64
1484183133.36,62234,5.0,71634.8,-13.41,-23.23,-17.49,0,*6D
1484183134.66,62235,5.0,71624.5,-13.41,-22.77,-17.07,0,*66
1484183135.91,62236,5.0,71636.3,-13.41,-22.41,-16.79,0,*68
1484183137.2,62237,5.0,71642.5,-13.41,-21.97,-16.51,0,*6B
1484183138.46,62238,5.0,71648.5,-13.41,-21.47,-16.31,0,*6F
1484183139.74,62239,5.0,71634.0,-13.41,-20.89,-16.13,0,*6D
1484183140.97,62240,5.0,71612.0,-13.41,-20.29,-16.03,0,*68
1484183142.24,62241,5.0,71620.8,-13.41,-19.75,-15.85,0,*67
1484183143.49,62242,5.0,71628.3,-13.41,-19.07,-15.71,0,*6A
1484183144.74,62243,5.0,71600.8,-13.37,-18.79,-15.71,0,*62
1484183145.99,62244,5.0,71614.5,-13.41,-18.17,-15.49,0,*67
1484183147.28,62245,5.0,71616.8,-13.37,-17.59,-15.43,0,*68
1484183148.58,62246,5.0,71620.5,-13.41,-17.25,-15.43,0,*61
1484183149.83,62247,5.0,71626.3,-13.37,-16.89,-15.25,0,*66
1484183151.1,62248,5.0,71626.3,-13.41,-16.51,-15.15,0,*6E
1484183152.37,62249,5.0,71630.8,-13.37,-16.17,-15.11,0,*68
1484183153.67,62250,5.0,71624.5,-13.41,-16.17,-15.35,0,*67
1484183154.92,62251,5.0,71624.0,-13.41,-16.03,-15.29,0,*6E
1484183156.2,62252,5.0,71632.0,-13.41,-15.89,-15.29,0,*6C
1484183157.47,62253,5.0,71632.0,-13.37,-15.81,-15.25,0,*68
1484183158.74,62254,5.0,71638.8,-13.37,-15.57,-15.25,0,*64
1484183160.02,62255,5.0,71634.5,-13.41,-15.57,-15.25,0,*64
1484183161.27,62256,5.0,71632.0,-13.41,-15.49,-15.29,0,*64
1484183162.53,62257,5.0,71620.5,-13.37,-15.53,-15.21,0,*67
1484183163.81,62258,5.0,71618.0,-13.37,-15.39,-15.29,0,*6C
1484183165.1,62259,5.0,71618.0,-13.41,-15.57,-15.35,0,*69
1484183166.39,62260,5.0,71624.3,-13.41,-15.57,-15.35,0,*63
1484183167.67,62261,5.0,71626.3,-13.37,-15.43,-15.29,0,*6B
1484183168.92,62262,5.0,71604.0,-13.41,-15.49,-15.29,0,*63
1484183170.19,62263,5.0,71610.0,-13.37,-15.39,-15.25,0,*68
1484183171.45,62264,5.0,71626.3,-13.41,-15.29,-15.25,0,*6F
1484183172.7,62265,5.0,71642.0,-13.41,-15.29,-15.25,0,*6E
1484183173.96,62266,5.0,71632.5,-13.41,-15.29,-15.25,0,*6D
1484183175.24,62267,5.0,71640.3,-13.37,-15.21,-15.21,0,*61
1484183176.5,62268,5.0,71644.8,-13.37,-15.11,-15.21,0,*6D
1484183177.75,62269,5.0,71644.3,-13.41,-15.25,-15.15,0,*6D
1484183179.02,62270,5.0,71636.3,-13.41,-15.35,-15.25,0,*67
1484183180.28,62271,5.0,71646.0,-13.37,-15.21,-15.11,0,*65
1484183181.53,62272,5.0,71642.8,-13.37,-15.29,-15.11,0,*6E
1484183182.77,62273,5.0,71636.3,-13.41,-15.25,-15.15,0,*66
1484183184.01,62274,5.0,71638.8,-13.37,-15.11,-15.11,0,*63
1484183185.25,62275,5.0,71638.8,-13.41,-15.25,-15.15,0,*60
1484183186.5,62276,5.0,71624.0,-13.41,-15.25,-15.15,0,*63
1484183187.79,62277,5.0,71600.3,-13.37,-15.21,-15.21,0,*60
1484183189.04,62278,5.0,71604.8,-13.37,-15.29,-15.29,0,*6F
1484183190.31,62279,5.0,71600.0,-13.41,-15.35,-15.29,0,*62
1484183191.59,62280,5.0,71588.3,-13.37,-15.39,-15.29,0,*69
1484183192.88,62281,5.0,71586.3,-13.37,-15.43,-15.39,0,*64
1484183194.13,62282,5.0,71584.0,-13.41,-15.49,-15.49,0,*6B
1484183195.41,62283,5.0,71584.8,-13.37,-15.29,-15.39,0,*6A
1484183196.71,62284,5.0,71590.3,-13.41,-15.43,-15.43,0,*6D
1484183197.98,62285,5.0,71588.3,-13.41,-15.29,-15.35,0,*61
1484183199.25,62286,5.0,71590.8,-13.41,-15.29,-15.35,0,*62
1484183200.55,62287,5.0,71590.8,-13.41,-15.35,-15.43,0,*6F
1484183201.85,62288,5.0,71604.5,-13.41,-15.43,-15.43,0,*61
1484183203.1,62289,5.0,71606.5,-13.41,-15.25,-15.25,0,*60
1484183204.35,62290,5.0,71610.5,-13.41,-15.15,-15.25,0,*6B
1484183205.61,62291,5.0,71618.3,-13.41,-15.15,-15.25,0,*6A
1484183206.85,62292,5.0,71618.5,-13.41,-15.25,-15.15,0,*69
1484183208.1,62293,5.0,71616.5,-13.41,-15.15,-15.15,0,*6B
1484183209.37,62294,5.0,71612.3,-13.41,-15.29,-15.35,0,*61
1484183210.62,62295,5.0,71612.3,-13.41,-15.29,-15.25,0,*61
1484183211.88,62296,5.0,71608.5,-13.41,-15.29,-15.29,0,*6E
1484183213.13,62297,5.0,71616.3,-13.41,-15.29,-15.29,0,*6F
1484183214.39,62298,5.0,71622.0,-13.41,-15.25,-15.25,0,*60
1484183215.63,62299,5.0,71622.0,-13.41,-15.15,-15.15,0,*61
1484183216.88,62300,5.0,71624.3,-13.41,-15.15,-15.15,0,*60
1484183218.12,62301,5.0,71616.3,-13.43,-15.21,-15.29,0,*6B
1484183219.37,62302,5.0,71608.5,-13.41,-15.29,-15.25,0,*6E
1484183220.63,62303,5.0,71604.8,-13.41,-15.25,-15.25,0,*63
1484183221.89,62304,5.0,71598.0,-13.43,-15.35,-15.35,0,*66
1484183223.12,62305,5.0,71598.5,-13.43,-15.29,-15.29,0,*67
1484183224.39,62306,5.0,71598.0,-13.43,-15.35,-15.39,0,*68
1484183225.66,62307,5.0,71596.3,-13.41,-15.29,-15.35,0,*6A
1484183226.88,62308,5.0,71604.0,-13.43,-15.29,-15.29,0,*6A
1484183228.11,62309,5.0,71612.8,-13.43,-15.29,-15.29,0,*6B
1484183229.39,62310,5.0,71614.3,-13.45,-15.21,-15.21,0,*65
1484183230.63,62311,5.0,71618.8,-13.43,-15.21,-15.29,0,*6A
1484183231.87,62312,5.0,71614.5,-13.43,-15.21,-15.29,0,*69
1484183233.13,62313,5.0,71614.8,-13.43,-15.21,-15.21,0,*60
1484183234.39,62314,5.0,71614.5,-13.37,-15.21,-15.11,0,*67
1484183235.64,62315,5.0,71616.5,-13.41,-15.15,-15.15,0,*64
1484183236.88,62316,5.0,71622.8,-13.41,-15.15,-15.11,0,*63
1484183238.13,62317,5.0,71624.3,-13.41,-15.15,-15.11,0,*62
1484183239.38,62318,5.0,71624.8,-13.37,-15.21,-15.11,0,*6B
1484183240.63,62319,5.0,71622.3,-13.37,-15.25,-15.11,0,*6E
1484183241.89,62320,5.0,71616.0,-13.37,-15.21,-15.11,0,*60
1484183243.14,62321,5.0,71620.5,-13.41,-15.25,-15.29,0,*6F
1484183244.39,62322,5.0,71620.0,-13.41,-15.25,-15.15,0,*63
1484183245.64,62323,5.0,71622.0,-13.41,-15.25,-15.25,0,*61
1484183246.89,62324,5.0,71624.8,-13.41,-15.29,-15.25,0,*6A
1484183248.14,62325,5.0,71630.5,-13.41,-15.29,-15.15,0,*68
1484183249.38,62326,5.0,71622.3,-13.43,-15.21,-15.29,0,*6E
1484183250.64,62327,5.0,71616.3,-13.41,-15.25,-15.25,0,*65
1484183251.91,62328,5.0,71624.8,-13.41,-15.35,-15.25,0,*6B
1484183253.16,62329,5.0,71632.0,-13.41,-15.29,-15.15,0,*64
1484183254.41,62330,5.0,71628.0,-13.41,-15.29,-15.15,0,*6C
1484183255.66,62331,5.0,71630.0,-13.41,-15.25,-15.25,0,*62
1484183256.91,62332,5.0,71622.3,-13.41,-15.25,-15.25,0,*61
1484183258.17,62333,5.0,71620.5,-13.41,-15.25,-15.25,0,*60
1484183259.41,62334,5.0,71626.0,-13.41,-15.25,-15.15,0,*64
1484183260.66,62335,5.0,71626.8,-13.41,-15.15,-15.11,0,*62
1484183261.94,62336,5.0,71626.0,-13.37,-15.21,-15.21,0,*64
1484183263.2,62337,5.0,71614.0,-13.41,-15.25,-15.25,0,*64
1484183264.45,62338,5.0,71612.0,-13.41,-15.25,-15.25,0,*6B
1484183265.7,62339,5.0,71616.5,-13.41,-15.25,-15.15,0,*69
1484183266.94,62340,5.0,71612.0,-13.41,-15.15,-15.15,0,*64
1484183268.19,62341,5.0,71614.0,-13.41,-15.15,-15.11,0,*61
1484183269.45,62342,5.0,71618.0,-13.37,-15.11,-14.97,0,*68
1484183270.69,62343,5.0,71622.5,-13.41,-15.11,-15.11,0,*67
1484183271.93,62344,5.0,71630.3,-13.41,-15.11,-15.11,0,*60
1484183273.17,62345,5.0,71626.8,-13.37,-15.07,-15.11,0,*67
1484183274.42,62346,5.0,71618.8,-13.41,-15.25,-15.25,0,*62
1484183275.7,62347,5.0,71624.3,-13.37,-15.21,-15.21,0,*62
1484183276.96,62348,5.0,71626.5,-13.41,-15.15,-15.29,0,*63
1484183278.21,62349,5.0,71620.8,-13.41,-15.15,-15.15,0,*6D
1484183279.49,62350,5.0,71610.0,-13.37,-15.21,-15.21,0,*64
1484183280.73,62351,5.0,71612.3,-13.41,-15.25,-15.15,0,*67
1484183281.98,62352,5.0,71606.8,-13.41,-15.25,-15.15,0,*64
1484183283.23,62353,5.0,71604.0,-13.37,-15.11,-15.25,0,*60
1484183284.48,62354,5.0,71604.3,-13.37,-15.21,-15.11,0,*63
1484183285.73,62355,5.0,71606.0,-13.41,-15.15,-15.15,0,*60
1484183286.98,62356,5.0,71610.8,-13.41,-15.15,-15.25,0,*60
1484183288.24,62357,5.0,71608.5,-13.41,-15.25,-15.25,0,*62
1484183289.49,62358,5.0,71608.3,-13.41,-15.25,-15.25,0,*6D
1484183290.73,62359,5.0,71614.3,-13.37,-15.11,-15.11,0,*6D
1484183291.99,62360,5.0,71616.3,-13.37,-15.25,-15.21,0,*63
1484183293.29,62361,5.0,71612.0,-13.41,-15.35,-15.35,0,*67
1484183294.54,62362,5.0,71614.3,-13.37,-15.29,-15.29,0,*65
1484183295.79,62363,5.0,71612.0,-13.37,-15.29,-15.29,0,*64
1484183297.04,62364,5.0,71610.0,-13.37,-15.29,-15.29,0,*63
1484183298.31,62365,5.0,71602.8,-13.37,-15.53,-15.43,0,*63
1484183299.61,62366,5.0,71600.5,-13.37,-15.43,-15.39,0,*6C
1484183300.88,62367,5.0,71600.8,-13.37,-15.53,-15.39,0,*6C
1484183302.15,62368,5.0,71616.3,-13.41,-15.49,-15.35,0,*65
1484183303.42,62369,5.0,71624.3,-13.37,-15.43,-15.29,0,*62
1484183304.72,62370,5.0,71626.3,-13.37,-15.57,-15.43,0,*63
1484183305.99,62371,5.0,71626.3,-13.37,-15.71,-15.43,0,*66
1484183307.24,62372,5.0,71628.5,-13.41,-15.75,-15.49,0,*6A
1484183308.49,62373,5.0,71628.5,-13.41,-15.71,-15.49,0,*6F
1484183309.76,62374,5.0,71636.3,-13.37,-15.71,-15.43,0,*63
1484183311.0,62375,5.0,71632.3,-13.37,-15.71,-15.67,0,*64
1484183312.24,62376,5.0,71630.3,-13.37,-15.71,-15.53,0,*60